owner,sensor,date,latitude,longitude,vertical_datum,sea_water_temperature,qcFlag 
TABS,ioos:station:wmo:42044:1,2000-10-21T13:00:00Z,26.1914,-97.0507,-2.0,23.12,11111222 
TABS,ioos:station:wmo:42044:1,2000-10-21T13:30:00Z,26.1914,-97.0507,-2.0,23.12,11111222 
TABS,ioos:station:wmo:42044:1,2000-10-21T14:00:00Z,26.1914,-97.0507,-2.0,23.12,11111222 
TABS,ioos:station:wmo:42044:1,2000-10-21T14:30:00Z,26.1914,-97.0507,-2.0,23.16,11111222 
TABS,ioos:station:wmo:42044:1,2000-10-21T15:00:00Z,26.1914,-97.0507,-2.0,23.2,11111222 
TABS,ioos:station:wmo:42044:1,2000-10-21T15:30:00Z,26.1914,-97.0507,-2.0,23.23,11111222 
TABS,ioos:station:wmo:42044:1,2000-10-21T16:00:00Z,26.1914,-97.0507,-2.0,23.26,11111222 
TABS,ioos:station:wmo:42044:1,2000-10-21T16:30:00Z,26.1914,-97.0507,-2.0,23.29,11111222 
TABS,ioos:station:wmo:42044:1,2000-10-21T17:00:00Z,26.1914,-97.0507,-2.0,23.32,11111222 
TABS,ioos:station:wmo:42044:1,2000-10-21T17:30:00Z,26.1914,-97.0507,-2.0,23.35,11111222 
TABS,ioos:station:wmo:42044:1,2000-10-21T18:00:00Z,26.1914,-97.0507,-2.0,23.4,11111222 
TABS,ioos:station:wmo:42044:1,2000-10-21T18:30:00Z,26.1914,-97.0507,-2.0,23.4,11111222 
TABS,ioos:station:wmo:42044:1,2000-10-21T19:00:00Z,26.1914,-97.0507,-2.0,23.42,11111222 
TABS,ioos:station:wmo:42044:1,2000-10-21T19:30:00Z,26.1914,-97.0507,-2.0,23.43,11111222 
TABS,ioos:station:wmo:42044:1,2000-10-21T20:00:00Z,26.1914,-97.0507,-2.0,23.48,11111222 
TABS,ioos:station:wmo:42044:1,2000-10-21T20:30:00Z,26.1914,-97.0507,-2.0,23.55,11111222 
TABS,ioos:station:wmo:42044:1,2000-10-21T21:00:00Z,26.1914,-97.0507,-2.0,23.59,11111222 
TABS,ioos:station:wmo:42044:1,2000-10-21T21:30:00Z,26.1914,-97.0507,-2.0,23.64,11111222 
TABS,ioos:station:wmo:42044:1,2000-10-21T22:00:00Z,26.1914,-97.0507,-2.0,23.65,11111222 
TABS,ioos:station:wmo:42044:1,2000-10-21T22:30:00Z,26.1914,-97.0507,-2.0,23.64,11111222 
TABS,ioos:station:wmo:42044:1,2000-10-21T23:00:00Z,26.1914,-97.0507,-2.0,23.63,11111222 
TABS,ioos:station:wmo:42044:1,2000-10-21T23:30:00Z,26.1914,-97.0507,-2.0,23.6,11111222 
TABS,ioos:station:wmo:42044:1,2000-10-22T00:00:00Z,26.1914,-97.0507,-2.0,23.58,11111222 
TABS,ioos:station:wmo:42044:1,2000-10-22T00:30:00Z,26.1914,-97.0507,-2.0,23.58,11111222 
TABS,ioos:station:wmo:42044:1,2000-10-22T01:00:00Z,26.1914,-97.0507,-2.0,23.58,11111222 
TABS,ioos:station:wmo:42044:1,2000-10-22T01:30:00Z,26.1914,-97.0507,-2.0,23.58,11111222 
TABS,ioos:station:wmo:42044:1,2000-10-22T02:00:00Z,26.1914,-97.0507,-2.0,23.59,11111222 
TABS,ioos:station:wmo:42044:1,2000-10-22T02:30:00Z,26.1914,-97.0507,-2.0,23.58,11111222 
TABS,ioos:station:wmo:42044:1,2000-10-22T03:00:00Z,26.1914,-97.0507,-2.0,23.64,11111222 
TABS,ioos:station:wmo:42044:1,2000-10-22T03:30:00Z,26.1914,-97.0507,-2.0,23.65,11111222 
TABS,ioos:station:wmo:42044:1,2000-10-22T04:00:00Z,26.1914,-97.0507,-2.0,23.69,11111222 
TABS,ioos:station:wmo:42044:1,2000-10-22T04:30:00Z,26.1914,-97.0507,-2.0,23.71,11111222 
TABS,ioos:station:wmo:42044:1,2000-10-22T05:00:00Z,26.1914,-97.0507,-2.0,23.71,11111222 
TABS,ioos:station:wmo:42044:1,2000-10-22T05:30:00Z,26.1914,-97.0507,-2.0,23.72,11111222 
TABS,ioos:station:wmo:42044:1,2000-10-22T14:00:00Z,26.1914,-97.0507,-2.0,23.86,11111222 
TABS,ioos:station:wmo:42044:1,2000-10-22T15:30:00Z,26.1914,-97.0507,-2.0,23.87,11111222 
TABS,ioos:station:wmo:42044:1,2000-10-22T16:00:00Z,26.1914,-97.0507,-2.0,23.87,11111222 
TABS,ioos:station:wmo:42044:1,2000-10-22T16:30:00Z,26.1914,-97.0507,-2.0,23.89,11111222 
TABS,ioos:station:wmo:42044:1,2000-10-22T17:00:00Z,26.1914,-97.0507,-2.0,23.91,11111222 
TABS,ioos:station:wmo:42044:1,2000-10-22T18:00:00Z,26.1914,-97.0507,-2.0,23.96,11111222 
TABS,ioos:station:wmo:42044:1,2000-10-22T18:30:00Z,26.1914,-97.0507,-2.0,23.97,11111222 
TABS,ioos:station:wmo:42044:1,2000-10-22T19:00:00Z,26.1914,-97.0507,-2.0,24.01,11111222 
TABS,ioos:station:wmo:42044:1,2000-10-22T19:30:00Z,26.1914,-97.0507,-2.0,24.05,11111222 
TABS,ioos:station:wmo:42044:1,2000-10-22T20:00:00Z,26.1914,-97.0507,-2.0,24.07,11111222 
TABS,ioos:station:wmo:42044:1,2000-10-22T20:30:00Z,26.1914,-97.0507,-2.0,24.07,11111222 
TABS,ioos:station:wmo:42044:1,2000-10-22T21:00:00Z,26.1914,-97.0507,-2.0,24.09,11111222 
TABS,ioos:station:wmo:42044:1,2000-10-22T21:30:00Z,26.1914,-97.0507,-2.0,24.11,11111222 
TABS,ioos:station:wmo:42044:1,2000-10-22T22:00:00Z,26.1914,-97.0507,-2.0,24.12,11111222 
TABS,ioos:station:wmo:42044:1,2000-10-22T22:30:00Z,26.1914,-97.0507,-2.0,24.13,11111222 
TABS,ioos:station:wmo:42044:1,2000-10-22T23:00:00Z,26.1914,-97.0507,-2.0,24.14,11111222 
TABS,ioos:station:wmo:42044:1,2000-10-22T23:30:00Z,26.1914,-97.0507,-2.0,24.15,11111222 
TABS,ioos:station:wmo:42044:1,2000-10-23T00:00:00Z,26.1914,-97.0507,-2.0,24.16,11111222 
TABS,ioos:station:wmo:42044:1,2000-10-23T00:30:00Z,26.1914,-97.0507,-2.0,24.16,11111222 
TABS,ioos:station:wmo:42044:1,2000-10-23T01:00:00Z,26.1914,-97.0507,-2.0,24.17,11111222 
TABS,ioos:station:wmo:42044:1,2000-10-23T01:30:00Z,26.1914,-97.0507,-2.0,24.17,11111222 
TABS,ioos:station:wmo:42044:1,2000-10-23T02:00:00Z,26.1914,-97.0507,-2.0,24.17,11111222 
TABS,ioos:station:wmo:42044:1,2000-10-23T02:30:00Z,26.1914,-97.0507,-2.0,24.17,11111222 
TABS,ioos:station:wmo:42044:1,2000-10-23T03:00:00Z,26.1914,-97.0507,-2.0,24.17,11111222 
TABS,ioos:station:wmo:42044:1,2000-10-23T03:30:00Z,26.1914,-97.0507,-2.0,24.16,11111222 
TABS,ioos:station:wmo:42044:1,2000-10-23T04:00:00Z,26.1914,-97.0507,-2.0,24.16,11111222 
TABS,ioos:station:wmo:42044:1,2000-10-23T04:30:00Z,26.1914,-97.0507,-2.0,24.16,11111222 
TABS,ioos:station:wmo:42044:1,2000-10-23T05:00:00Z,26.1914,-97.0507,-2.0,24.16,11111222 
TABS,ioos:station:wmo:42044:1,2000-10-23T05:30:00Z,26.1914,-97.0507,-2.0,24.16,11111222 
TABS,ioos:station:wmo:42044:1,2000-10-23T06:00:00Z,26.1914,-97.0507,-2.0,24.15,11111222 
TABS,ioos:station:wmo:42044:1,2000-10-23T06:30:00Z,26.1914,-97.0507,-2.0,24.15,11111222 
TABS,ioos:station:wmo:42044:1,2000-10-23T07:00:00Z,26.1914,-97.0507,-2.0,24.15,11111222 
TABS,ioos:station:wmo:42044:1,2000-10-23T07:30:00Z,26.1914,-97.0507,-2.0,24.15,11111222 
TABS,ioos:station:wmo:42044:1,2000-10-23T08:00:00Z,26.1914,-97.0507,-2.0,24.15,11111222 
TABS,ioos:station:wmo:42044:1,2000-10-23T08:30:00Z,26.1914,-97.0507,-2.0,24.15,11111222 
TABS,ioos:station:wmo:42044:1,2000-10-23T09:00:00Z,26.1914,-97.0507,-2.0,24.15,11111222 
TABS,ioos:station:wmo:42044:1,2000-10-23T09:30:00Z,26.1914,-97.0507,-2.0,24.14,11111222 
TABS,ioos:station:wmo:42044:1,2000-10-23T10:00:00Z,26.1914,-97.0507,-2.0,24.13,11111222 
TABS,ioos:station:wmo:42044:1,2000-10-23T10:30:00Z,26.1914,-97.0507,-2.0,24.13,11111222 
TABS,ioos:station:wmo:42044:1,2000-10-23T11:00:00Z,26.1914,-97.0507,-2.0,24.13,11111222 
TABS,ioos:station:wmo:42044:1,2000-10-23T11:30:00Z,26.1914,-97.0507,-2.0,24.12,11111222 
TABS,ioos:station:wmo:42044:1,2000-10-23T12:00:00Z,26.1914,-97.0507,-2.0,24.12,11111222 
TABS,ioos:station:wmo:42044:1,2000-10-23T12:30:00Z,26.1914,-97.0507,-2.0,24.12,11111222 
TABS,ioos:station:wmo:42044:1,2000-10-23T13:00:00Z,26.1914,-97.0507,-2.0,24.12,11111222 
TABS,ioos:station:wmo:42044:1,2000-10-23T13:30:00Z,26.1914,-97.0507,-2.0,24.13,11111222 
TABS,ioos:station:wmo:42044:1,2000-10-23T14:00:00Z,26.1914,-97.0507,-2.0,24.13,11111222 
TABS,ioos:station:wmo:42044:1,2000-10-23T14:30:00Z,26.1914,-97.0507,-2.0,24.14,11111222 
TABS,ioos:station:wmo:42044:1,2000-10-23T15:00:00Z,26.1914,-97.0507,-2.0,24.15,11111222 
TABS,ioos:station:wmo:42044:1,2000-10-23T15:30:00Z,26.1914,-97.0507,-2.0,24.16,11111222 
TABS,ioos:station:wmo:42044:1,2000-10-23T16:00:00Z,26.1914,-97.0507,-2.0,24.19,11111222 
TABS,ioos:station:wmo:42044:1,2000-10-23T16:30:00Z,26.1914,-97.0507,-2.0,24.22,11111222 
TABS,ioos:station:wmo:42044:1,2000-10-23T17:00:00Z,26.1914,-97.0507,-2.0,24.29,11111222 
TABS,ioos:station:wmo:42044:1,2000-10-23T17:30:00Z,26.1914,-97.0507,-2.0,24.33,11111222 
TABS,ioos:station:wmo:42044:1,2000-10-23T18:00:00Z,26.1914,-97.0507,-2.0,24.38,11111222 
TABS,ioos:station:wmo:42044:1,2000-10-23T18:30:00Z,26.1914,-97.0507,-2.0,24.48,11111222 
TABS,ioos:station:wmo:42044:1,2000-10-23T19:00:00Z,26.1914,-97.0507,-2.0,24.51,11111222 
TABS,ioos:station:wmo:42044:1,2000-10-23T19:30:00Z,26.1914,-97.0507,-2.0,24.53,11111222 
TABS,ioos:station:wmo:42044:1,2000-10-23T20:00:00Z,26.1914,-97.0507,-2.0,24.53,11111222 
TABS,ioos:station:wmo:42044:1,2000-10-23T20:30:00Z,26.1914,-97.0507,-2.0,24.56,11111222 
TABS,ioos:station:wmo:42044:1,2000-10-23T21:00:00Z,26.1914,-97.0507,-2.0,24.56,11111222 
TABS,ioos:station:wmo:42044:1,2000-10-23T21:30:00Z,26.1914,-97.0507,-2.0,24.57,11111222 
TABS,ioos:station:wmo:42044:1,2000-10-23T22:00:00Z,26.1914,-97.0507,-2.0,24.58,11111222 
TABS,ioos:station:wmo:42044:1,2000-10-23T22:30:00Z,26.1914,-97.0507,-2.0,24.55,11111222 
TABS,ioos:station:wmo:42044:1,2000-10-23T23:00:00Z,26.1914,-97.0507,-2.0,24.54,11111222 
TABS,ioos:station:wmo:42044:1,2000-10-23T23:30:00Z,26.1914,-97.0507,-2.0,24.54,11111222 
TABS,ioos:station:wmo:42044:1,2000-10-24T00:00:00Z,26.1914,-97.0507,-2.0,24.53,11111222 
TABS,ioos:station:wmo:42044:1,2000-10-24T00:30:00Z,26.1914,-97.0507,-2.0,24.53,11111222 
TABS,ioos:station:wmo:42044:1,2000-10-24T01:00:00Z,26.1914,-97.0507,-2.0,24.5,11111222 
TABS,ioos:station:wmo:42044:1,2000-10-24T01:30:00Z,26.1914,-97.0507,-2.0,24.51,11111222 
TABS,ioos:station:wmo:42044:1,2000-10-24T02:00:00Z,26.1914,-97.0507,-2.0,24.52,11111222 
TABS,ioos:station:wmo:42044:1,2000-10-24T02:30:00Z,26.1914,-97.0507,-2.0,24.55,11111222 
TABS,ioos:station:wmo:42044:1,2000-10-24T03:00:00Z,26.1914,-97.0507,-2.0,24.56,11111222 
TABS,ioos:station:wmo:42044:1,2000-10-24T03:30:00Z,26.1914,-97.0507,-2.0,24.55,11111222 
TABS,ioos:station:wmo:42044:1,2000-10-24T04:00:00Z,26.1914,-97.0507,-2.0,24.55,11111222 
TABS,ioos:station:wmo:42044:1,2000-10-24T04:30:00Z,26.1914,-97.0507,-2.0,24.6,11111222 
TABS,ioos:station:wmo:42044:1,2000-10-24T05:00:00Z,26.1914,-97.0507,-2.0,24.61,11111222 
TABS,ioos:station:wmo:42044:1,2000-10-24T05:30:00Z,26.1914,-97.0507,-2.0,24.62,11111222 
TABS,ioos:station:wmo:42044:1,2000-10-24T06:00:00Z,26.1914,-97.0507,-2.0,24.61,11111222 
TABS,ioos:station:wmo:42044:1,2000-10-24T06:30:00Z,26.1914,-97.0507,-2.0,24.58,11111222 
TABS,ioos:station:wmo:42044:1,2000-10-24T07:00:00Z,26.1914,-97.0507,-2.0,24.6,11111222 
TABS,ioos:station:wmo:42044:1,2000-10-24T07:30:00Z,26.1914,-97.0507,-2.0,24.64,11111222 
TABS,ioos:station:wmo:42044:1,2000-10-24T08:00:00Z,26.1914,-97.0507,-2.0,24.62,11111222 
TABS,ioos:station:wmo:42044:1,2000-10-24T08:30:00Z,26.1914,-97.0507,-2.0,24.61,11111222 
TABS,ioos:station:wmo:42044:1,2000-10-24T09:00:00Z,26.1914,-97.0507,-2.0,24.6,11111222 
TABS,ioos:station:wmo:42044:1,2000-10-24T09:30:00Z,26.1914,-97.0507,-2.0,24.62,11111222 
TABS,ioos:station:wmo:42044:1,2000-10-24T10:00:00Z,26.1914,-97.0507,-2.0,24.63,11111222 
TABS,ioos:station:wmo:42044:1,2000-10-24T10:30:00Z,26.1914,-97.0507,-2.0,24.59,11111222 
TABS,ioos:station:wmo:42044:1,2000-10-24T11:00:00Z,26.1914,-97.0507,-2.0,24.54,11111222 
TABS,ioos:station:wmo:42044:1,2000-10-24T11:30:00Z,26.1914,-97.0507,-2.0,24.55,11111222 
TABS,ioos:station:wmo:42044:1,2000-10-24T12:00:00Z,26.1914,-97.0507,-2.0,24.53,11111222 
TABS,ioos:station:wmo:42044:1,2000-10-24T12:30:00Z,26.1914,-97.0507,-2.0,24.5,11111222 
TABS,ioos:station:wmo:42044:1,2000-10-24T13:00:00Z,26.1914,-97.0507,-2.0,24.41,11111222 
TABS,ioos:station:wmo:42044:1,2000-10-24T13:30:00Z,26.1914,-97.0507,-2.0,24.38,11111222 
TABS,ioos:station:wmo:42044:1,2000-10-24T14:00:00Z,26.1914,-97.0507,-2.0,24.37,11111222 
TABS,ioos:station:wmo:42044:1,2000-10-24T14:30:00Z,26.1914,-97.0507,-2.0,24.38,11111222 
TABS,ioos:station:wmo:42044:1,2000-10-24T15:00:00Z,26.1914,-97.0507,-2.0,24.4,11111222 
TABS,ioos:station:wmo:42044:1,2000-10-24T15:30:00Z,26.1914,-97.0507,-2.0,24.39,11111222 
TABS,ioos:station:wmo:42044:1,2000-10-24T16:00:00Z,26.1914,-97.0507,-2.0,24.4,11111222 
TABS,ioos:station:wmo:42044:1,2000-10-24T16:30:00Z,26.1914,-97.0507,-2.0,24.43,11111222 
TABS,ioos:station:wmo:42044:1,2000-10-24T17:00:00Z,26.1914,-97.0507,-2.0,24.49,11111222 
TABS,ioos:station:wmo:42044:1,2000-10-24T17:30:00Z,26.1914,-97.0507,-2.0,24.55,11111222 
TABS,ioos:station:wmo:42044:1,2000-10-24T18:00:00Z,26.1914,-97.0507,-2.0,24.59,11111222 
TABS,ioos:station:wmo:42044:1,2000-10-24T18:30:00Z,26.1914,-97.0507,-2.0,24.65,11111222 
TABS,ioos:station:wmo:42044:1,2000-10-24T19:00:00Z,26.1914,-97.0507,-2.0,24.69,11111222 
TABS,ioos:station:wmo:42044:1,2000-10-24T19:30:00Z,26.1914,-97.0507,-2.0,24.72,11111222 
TABS,ioos:station:wmo:42044:1,2000-10-24T20:00:00Z,26.1914,-97.0507,-2.0,24.72,11111222 
TABS,ioos:station:wmo:42044:1,2000-10-24T20:30:00Z,26.1914,-97.0507,-2.0,24.72,11111222 
TABS,ioos:station:wmo:42044:1,2000-10-24T21:00:00Z,26.1914,-97.0507,-2.0,24.74,11111222 
TABS,ioos:station:wmo:42044:1,2000-10-24T21:30:00Z,26.1914,-97.0507,-2.0,24.76,11111222 
TABS,ioos:station:wmo:42044:1,2000-10-24T22:00:00Z,26.1914,-97.0507,-2.0,24.75,11111222 
TABS,ioos:station:wmo:42044:1,2000-10-24T22:30:00Z,26.1914,-97.0507,-2.0,24.77,11111222 
TABS,ioos:station:wmo:42044:1,2000-10-24T23:00:00Z,26.1914,-97.0507,-2.0,24.65,11111222 
TABS,ioos:station:wmo:42044:1,2000-10-24T23:30:00Z,26.1914,-97.0507,-2.0,24.66,11111222 
TABS,ioos:station:wmo:42044:1,2000-10-25T00:00:00Z,26.1914,-97.0507,-2.0,24.67,11111222 
TABS,ioos:station:wmo:42044:1,2000-10-25T00:30:00Z,26.1914,-97.0507,-2.0,24.69,11111222 
TABS,ioos:station:wmo:42044:1,2000-10-25T01:00:00Z,26.1914,-97.0507,-2.0,24.7,11111222 
TABS,ioos:station:wmo:42044:1,2000-10-25T01:30:00Z,26.1914,-97.0507,-2.0,24.68,11111222 
TABS,ioos:station:wmo:42044:1,2000-10-25T02:00:00Z,26.1914,-97.0507,-2.0,24.69,11111222 
TABS,ioos:station:wmo:42044:1,2000-10-25T02:30:00Z,26.1914,-97.0507,-2.0,24.71,11111222 
TABS,ioos:station:wmo:42044:1,2000-10-25T03:00:00Z,26.1914,-97.0507,-2.0,24.72,11111222 
TABS,ioos:station:wmo:42044:1,2000-10-25T03:30:00Z,26.1914,-97.0507,-2.0,24.72,11111222 
TABS,ioos:station:wmo:42044:1,2000-10-25T04:00:00Z,26.1914,-97.0507,-2.0,24.7,11111222 
TABS,ioos:station:wmo:42044:1,2000-10-25T04:30:00Z,26.1914,-97.0507,-2.0,24.67,11111222 
TABS,ioos:station:wmo:42044:1,2000-10-25T05:00:00Z,26.1914,-97.0507,-2.0,24.66,11111222 
TABS,ioos:station:wmo:42044:1,2000-10-25T05:30:00Z,26.1914,-97.0507,-2.0,24.59,11111222 
TABS,ioos:station:wmo:42044:1,2000-10-25T06:00:00Z,26.1914,-97.0507,-2.0,24.54,11111222 
TABS,ioos:station:wmo:42044:1,2000-10-25T06:30:00Z,26.1914,-97.0507,-2.0,24.56,11111222 
TABS,ioos:station:wmo:42044:1,2000-10-25T07:00:00Z,26.1914,-97.0507,-2.0,24.51,11111222 
TABS,ioos:station:wmo:42044:1,2000-10-25T07:30:00Z,26.1914,-97.0507,-2.0,24.5,11111222 
TABS,ioos:station:wmo:42044:1,2000-10-25T08:00:00Z,26.1914,-97.0507,-2.0,24.43,11111222 
TABS,ioos:station:wmo:42044:1,2000-10-25T08:30:00Z,26.1914,-97.0507,-2.0,24.43,11111222 
TABS,ioos:station:wmo:42044:1,2000-10-25T09:00:00Z,26.1914,-97.0507,-2.0,24.44,11111222 
TABS,ioos:station:wmo:42044:1,2000-10-25T09:30:00Z,26.1914,-97.0507,-2.0,24.44,11111222 
TABS,ioos:station:wmo:42044:1,2000-10-25T10:00:00Z,26.1914,-97.0507,-2.0,24.43,11111222 
TABS,ioos:station:wmo:42044:1,2000-10-25T10:30:00Z,26.1914,-97.0507,-2.0,24.39,11111222 
TABS,ioos:station:wmo:42044:1,2000-10-25T11:00:00Z,26.1914,-97.0507,-2.0,24.39,11111222 
TABS,ioos:station:wmo:42044:1,2000-10-25T11:30:00Z,26.1914,-97.0507,-2.0,24.39,11111222 
TABS,ioos:station:wmo:42044:1,2000-10-25T12:00:00Z,26.1914,-97.0507,-2.0,24.39,11111222 
TABS,ioos:station:wmo:42044:1,2000-10-25T12:30:00Z,26.1914,-97.0507,-2.0,24.39,11111222 
TABS,ioos:station:wmo:42044:1,2000-10-25T13:00:00Z,26.1914,-97.0507,-2.0,24.39,11111222 
TABS,ioos:station:wmo:42044:1,2000-10-25T13:30:00Z,26.1914,-97.0507,-2.0,24.35,11111222 
TABS,ioos:station:wmo:42044:1,2000-10-25T14:00:00Z,26.1914,-97.0507,-2.0,24.36,11111222 
TABS,ioos:station:wmo:42044:1,2000-10-25T14:30:00Z,26.1914,-97.0507,-2.0,24.38,11111222 
TABS,ioos:station:wmo:42044:1,2000-10-25T15:00:00Z,26.1914,-97.0507,-2.0,24.42,11111222 
TABS,ioos:station:wmo:42044:1,2000-10-25T15:30:00Z,26.1914,-97.0507,-2.0,24.46,11111222 
TABS,ioos:station:wmo:42044:1,2000-10-25T16:00:00Z,26.1914,-97.0507,-2.0,24.52,11111222 
TABS,ioos:station:wmo:42044:1,2000-10-25T16:30:00Z,26.1914,-97.0507,-2.0,24.56,11111222 
TABS,ioos:station:wmo:42044:1,2000-10-25T17:00:00Z,26.1914,-97.0507,-2.0,24.65,11111222 
TABS,ioos:station:wmo:42044:1,2000-10-25T17:30:00Z,26.1914,-97.0507,-2.0,24.71,11111222 
TABS,ioos:station:wmo:42044:1,2000-10-25T18:00:00Z,26.1914,-97.0507,-2.0,24.81,11111222 
TABS,ioos:station:wmo:42044:1,2000-10-25T18:30:00Z,26.1914,-97.0507,-2.0,24.86,11111222 
TABS,ioos:station:wmo:42044:1,2000-10-25T19:00:00Z,26.1914,-97.0507,-2.0,24.91,11111222 
TABS,ioos:station:wmo:42044:1,2000-10-25T19:30:00Z,26.1914,-97.0507,-2.0,24.74,11111222 
TABS,ioos:station:wmo:42044:1,2000-10-25T20:00:00Z,26.1914,-97.0507,-2.0,24.76,11111222 
TABS,ioos:station:wmo:42044:1,2000-10-25T20:30:00Z,26.1914,-97.0507,-2.0,24.76,11111222 
TABS,ioos:station:wmo:42044:1,2000-10-25T21:00:00Z,26.1914,-97.0507,-2.0,24.78,11111222 
TABS,ioos:station:wmo:42044:1,2000-10-25T21:30:00Z,26.1914,-97.0507,-2.0,24.68,11111222 
TABS,ioos:station:wmo:42044:1,2000-10-25T22:00:00Z,26.1914,-97.0507,-2.0,24.71,11111222 
TABS,ioos:station:wmo:42044:1,2000-10-25T22:30:00Z,26.1914,-97.0507,-2.0,24.76,11111222 
TABS,ioos:station:wmo:42044:1,2000-10-25T23:00:00Z,26.1914,-97.0507,-2.0,24.74,11111222 
TABS,ioos:station:wmo:42044:1,2000-10-25T23:30:00Z,26.1914,-97.0507,-2.0,24.66,11111222 
TABS,ioos:station:wmo:42044:1,2000-10-26T00:00:00Z,26.1914,-97.0507,-2.0,24.68,11111222 
TABS,ioos:station:wmo:42044:1,2000-10-26T00:30:00Z,26.1914,-97.0507,-2.0,24.62,11111222 
TABS,ioos:station:wmo:42044:1,2000-10-26T01:00:00Z,26.1914,-97.0507,-2.0,24.63,11111222 
TABS,ioos:station:wmo:42044:1,2000-10-26T01:30:00Z,26.1914,-97.0507,-2.0,24.64,11111222 
TABS,ioos:station:wmo:42044:1,2000-10-26T02:00:00Z,26.1914,-97.0507,-2.0,24.66,11111222 
TABS,ioos:station:wmo:42044:1,2000-10-26T02:30:00Z,26.1914,-97.0507,-2.0,24.65,11111222 
TABS,ioos:station:wmo:42044:1,2000-10-26T03:00:00Z,26.1914,-97.0507,-2.0,24.67,11111222 
TABS,ioos:station:wmo:42044:1,2000-10-26T03:30:00Z,26.1914,-97.0507,-2.0,24.67,11111222 
TABS,ioos:station:wmo:42044:1,2000-10-26T04:00:00Z,26.1914,-97.0507,-2.0,24.72,11111222 
TABS,ioos:station:wmo:42044:1,2000-10-26T04:30:00Z,26.1914,-97.0507,-2.0,24.72,11111222 
TABS,ioos:station:wmo:42044:1,2000-10-26T05:00:00Z,26.1914,-97.0507,-2.0,24.74,11111222 
TABS,ioos:station:wmo:42044:1,2000-10-26T05:30:00Z,26.1914,-97.0507,-2.0,24.69,11111222 
TABS,ioos:station:wmo:42044:1,2000-10-26T06:00:00Z,26.1914,-97.0507,-2.0,24.68,11111222 
TABS,ioos:station:wmo:42044:1,2000-10-26T06:30:00Z,26.1914,-97.0507,-2.0,24.72,11111222 
TABS,ioos:station:wmo:42044:1,2000-10-26T07:00:00Z,26.1914,-97.0507,-2.0,24.76,11111222 
TABS,ioos:station:wmo:42044:1,2000-10-26T07:30:00Z,26.1914,-97.0507,-2.0,24.77,11111222 
TABS,ioos:station:wmo:42044:1,2000-10-26T08:00:00Z,26.1914,-97.0507,-2.0,24.77,11111222 
TABS,ioos:station:wmo:42044:1,2000-10-26T08:30:00Z,26.1914,-97.0507,-2.0,24.78,11111222 
TABS,ioos:station:wmo:42044:1,2000-10-26T09:00:00Z,26.1914,-97.0507,-2.0,24.78,11111222 
TABS,ioos:station:wmo:42044:1,2000-10-26T09:30:00Z,26.1914,-97.0507,-2.0,24.81,11111222 
TABS,ioos:station:wmo:42044:1,2000-10-26T10:00:00Z,26.1914,-97.0507,-2.0,24.8,11111222 
TABS,ioos:station:wmo:42044:1,2000-10-26T10:30:00Z,26.1914,-97.0507,-2.0,24.79,11111222 
TABS,ioos:station:wmo:42044:1,2000-10-26T11:00:00Z,26.1914,-97.0507,-2.0,24.73,11111222 
TABS,ioos:station:wmo:42044:1,2000-10-26T11:30:00Z,26.1914,-97.0507,-2.0,24.67,11111222 
TABS,ioos:station:wmo:42044:1,2000-10-26T12:00:00Z,26.1914,-97.0507,-2.0,24.65,11111222 
TABS,ioos:station:wmo:42044:1,2000-10-26T12:30:00Z,26.1914,-97.0507,-2.0,24.61,11111222 
TABS,ioos:station:wmo:42044:1,2000-10-26T13:00:00Z,26.1914,-97.0507,-2.0,24.6,11111222 
TABS,ioos:station:wmo:42044:1,2000-10-26T13:30:00Z,26.1914,-97.0507,-2.0,24.61,11111222 
TABS,ioos:station:wmo:42044:1,2000-10-26T14:00:00Z,26.1914,-97.0507,-2.0,24.62,11111222 
TABS,ioos:station:wmo:42044:1,2000-10-26T14:30:00Z,26.1914,-97.0507,-2.0,24.65,11111222 
TABS,ioos:station:wmo:42044:1,2000-10-26T15:00:00Z,26.1914,-97.0507,-2.0,24.65,11111222 
TABS,ioos:station:wmo:42044:1,2000-10-26T15:30:00Z,26.1914,-97.0507,-2.0,24.67,11111222 
TABS,ioos:station:wmo:42044:1,2000-10-26T16:00:00Z,26.1914,-97.0507,-2.0,24.69,11111222 
TABS,ioos:station:wmo:42044:1,2000-10-26T16:30:00Z,26.1914,-97.0507,-2.0,24.71,11111222 
TABS,ioos:station:wmo:42044:1,2000-10-26T17:00:00Z,26.1914,-97.0507,-2.0,24.72,11111222 
TABS,ioos:station:wmo:42044:1,2000-10-26T17:30:00Z,26.1914,-97.0507,-2.0,24.76,11111222 
TABS,ioos:station:wmo:42044:1,2000-10-26T18:00:00Z,26.1914,-97.0507,-2.0,24.87,11111222 
TABS,ioos:station:wmo:42044:1,2000-10-26T18:30:00Z,26.1914,-97.0507,-2.0,24.89,11111222 
TABS,ioos:station:wmo:42044:1,2000-10-26T19:00:00Z,26.1914,-97.0507,-2.0,24.89,11111222 
TABS,ioos:station:wmo:42044:1,2000-10-26T19:30:00Z,26.1914,-97.0507,-2.0,24.98,11111222 
TABS,ioos:station:wmo:42044:1,2000-10-26T20:00:00Z,26.1914,-97.0507,-2.0,25.06,11111222 
TABS,ioos:station:wmo:42044:1,2000-10-26T20:30:00Z,26.1914,-97.0507,-2.0,25.08,11111222 
TABS,ioos:station:wmo:42044:1,2000-10-26T21:00:00Z,26.1914,-97.0507,-2.0,25.07,11111222 
TABS,ioos:station:wmo:42044:1,2000-10-26T21:30:00Z,26.1914,-97.0507,-2.0,25.02,11111222 
TABS,ioos:station:wmo:42044:1,2000-10-26T22:00:00Z,26.1914,-97.0507,-2.0,25.06,11111222 
TABS,ioos:station:wmo:42044:1,2000-10-26T22:30:00Z,26.1914,-97.0507,-2.0,25.05,11111222 
TABS,ioos:station:wmo:42044:1,2000-10-26T23:00:00Z,26.1914,-97.0507,-2.0,25.08,11111222 
TABS,ioos:station:wmo:42044:1,2000-10-26T23:30:00Z,26.1914,-97.0507,-2.0,25.06,11111222 
TABS,ioos:station:wmo:42044:1,2000-10-27T00:00:00Z,26.1914,-97.0507,-2.0,25.02,11111222 
TABS,ioos:station:wmo:42044:1,2000-10-27T00:30:00Z,26.1914,-97.0507,-2.0,24.92,11111222 
TABS,ioos:station:wmo:42044:1,2000-10-27T01:00:00Z,26.1914,-97.0507,-2.0,24.9,11111222 
TABS,ioos:station:wmo:42044:1,2000-10-27T01:30:00Z,26.1914,-97.0507,-2.0,24.86,11111222 
TABS,ioos:station:wmo:42044:1,2000-10-27T02:00:00Z,26.1914,-97.0507,-2.0,24.81,11111222 
TABS,ioos:station:wmo:42044:1,2000-10-27T02:30:00Z,26.1914,-97.0507,-2.0,24.82,11111222 
TABS,ioos:station:wmo:42044:1,2000-10-27T03:00:00Z,26.1914,-97.0507,-2.0,24.82,11111222 
TABS,ioos:station:wmo:42044:1,2000-10-27T03:30:00Z,26.1914,-97.0507,-2.0,24.8,11111222 
TABS,ioos:station:wmo:42044:1,2000-10-27T04:00:00Z,26.1914,-97.0507,-2.0,24.73,11111222 
TABS,ioos:station:wmo:42044:1,2000-10-27T04:30:00Z,26.1914,-97.0507,-2.0,24.71,11111222 
TABS,ioos:station:wmo:42044:1,2000-10-27T05:00:00Z,26.1914,-97.0507,-2.0,24.7,11111222 
TABS,ioos:station:wmo:42044:1,2000-10-27T05:30:00Z,26.1914,-97.0507,-2.0,24.67,11111222 
TABS,ioos:station:wmo:42044:1,2000-10-27T06:00:00Z,26.1914,-97.0507,-2.0,24.66,11111222 
TABS,ioos:station:wmo:42044:1,2000-10-27T06:30:00Z,26.1914,-97.0507,-2.0,24.66,11111222 
TABS,ioos:station:wmo:42044:1,2000-10-27T07:00:00Z,26.1914,-97.0507,-2.0,24.65,11111222 
TABS,ioos:station:wmo:42044:1,2000-10-27T07:30:00Z,26.1914,-97.0507,-2.0,24.64,11111222 
TABS,ioos:station:wmo:42044:1,2000-10-27T08:00:00Z,26.1914,-97.0507,-2.0,24.64,11111222 
TABS,ioos:station:wmo:42044:1,2000-10-27T08:30:00Z,26.1914,-97.0507,-2.0,24.64,11111222 
TABS,ioos:station:wmo:42044:1,2000-10-27T09:00:00Z,26.1914,-97.0507,-2.0,24.64,11111222 
TABS,ioos:station:wmo:42044:1,2000-10-27T09:30:00Z,26.1914,-97.0507,-2.0,24.64,11111222 
TABS,ioos:station:wmo:42044:1,2000-10-27T10:00:00Z,26.1914,-97.0507,-2.0,24.64,11111222 
TABS,ioos:station:wmo:42044:1,2000-10-27T10:30:00Z,26.1914,-97.0507,-2.0,24.62,11111222 
TABS,ioos:station:wmo:42044:1,2000-10-27T11:00:00Z,26.1914,-97.0507,-2.0,24.61,11111222 
TABS,ioos:station:wmo:42044:1,2000-10-27T11:30:00Z,26.1914,-97.0507,-2.0,24.62,11111222 
TABS,ioos:station:wmo:42044:1,2000-10-27T12:00:00Z,26.1914,-97.0507,-2.0,24.64,11111222 